STARLINK-31722, 59549

Orbit data source: Space-Track

STARLINK-31722, 59549 is a payload satellite owned by SpaceX/Seattle (US) in LEO that was launched on Thu, 18 Apr 2024 UTC via an FALCON 9 launch vehicle from the Air Force Eastern Test Range (AFETR). Payload-class satellites include a variety of spacecraft equipped with specific instruments for various scientific and technological missions. These include communications satellites like Starlink; space stations such as the ISS; scientific satellites like the Hubble; Earth observation satellites from companies like Planet Labs, Umbra, and HawkEye 360; GPS; miniature CubeSats for education and research; and military/defense satellites.

Loading next visibility...
Identifier
59549, 2024-074R
Orbit
LEO
Country
Flag of USUS
Related business
Manufacturer
SpaceX/Seattle
Mission
Operational Commercial Communications
Bus & Motor
STARLINK V2M, Unknown motor
Mass
730 kg wet, ~700 kg dry
Launch date (UTC)
2024-04-18 (2 years ago)
Launch vehicle
FALCON 9
Launch site
Air Force Eastern Test Range (AFETR)
Object type
Payload
Rocket body
Debris
Shape & HBR
Box + 2 Pan, 17.7 m
Radar Cross Section
33.884 m², Large (>1 m²)

Expand to show TLE details & history
Last TLE update: 2 days ago

TLE from 2 days ago
0 STARLINK-31722
1 59549U 24074R   26171.17985809  .00001420  00000-0  61111-4 0  9994
2 59549  43.0025 124.3051 0000556 274.8524  85.2264 15.27582264121690
Epoch: 2026-06-20T04:18Z
TLE epoch observation values (Epoch: 2026-06-20T04:18:59.738Z)
Latitude
-0.00005°
Longitude
151.15795°
Altitude
482.786 km
Speed
7.626 km/s
True Right ascension
08h 17m 13s
True Declination
0° 00' 00"
Sunlit
Object was in daylight at epoch
Visualization orbit readout
Latitude
Unknown
Longitude
Unknown
Altitude
Unknown
Speed
Unknown
Apparent Right ascension
Unknown
Apparent Declination
Unknown
Sunlit
N/A
Visualization observer readout
Local Sidereal Time
21:24:56
Azimuth
Unknown
Elevation
Unknown
Doppler factor
Unknown
Orbital elements
Apogee altitude
485.369 km
Perigee altitude
484.605 km
Semi-major axis
6,863.124 km
Eccentricity
0.00006
Inclination
43.0025°
RAAN
124.3051°
Arg. of periapsis
274.8524°
True anomaly
85.23275°
Mean anomaly
85.2264°
Eccentric anomaly
85.22957°
Mean motion
3.81734 °/min
Orbital period
94.31 mins
BSTAR
0.000061111
Loading maneuver chart data...
Computing Atmospheric mass density...
Loading historical data...
Loading historical data...
Loading historical data...
Loading historical data...
Loading historical data...
Loading historical data...
Loading historical data...

Documentation

Showing up to 5 results
|